SKW4781 KSBP-KLAX

Flight info

Callsign SKW4781
Flight time 0h 34m
Altitude 17000
Route RZS RYDRR RYDRR2
Aircraft E75L/M-SDE3GILORVW/S

Departure

Time 2026-04-20 03:59
Airport San Luis County Regional Airport (KSBP)

Arrival

Time 2026-04-20 04:34
Airport Los Angeles International Airport (KLAX)
Time Latitude Longitude Altitude Speed Heading
2026-04-20 03:55 35.23498 -120.63487 213 ft 0 kts 123°
2026-04-20 03:56 35.23483 -120.63462 214 ft 11 kts 128°
2026-04-20 03:56 35.23439 -120.63392 221 ft 10 kts 128°
2026-04-20 03:56 35.23399 -120.63328 218 ft 9 kts 126°
2026-04-20 03:57 35.23352 -120.63260 221 ft 13 kts 130°
2026-04-20 03:57 35.23320 -120.63239 222 ft 2 kts 181°
2026-04-20 03:57 35.23309 -120.63247 222 ft 6 kts 213°
2026-04-20 03:57 35.23284 -120.63303 221 ft 11 kts 278°
2026-04-20 03:58 35.23412 -120.63545 212 ft 70 kts 306°
2026-04-20 03:58 35.23837 -120.64287 197 ft 142 kts 303°
2026-04-20 03:58 35.24461 -120.65444 452 ft 183 kts 302°
2026-04-20 03:58 35.24891 -120.67083 442 ft 221 kts 272°
2026-04-20 03:59 35.24492 -120.68949 480 ft 239 kts 237°
2026-04-20 03:59 35.23799 -120.69957 1164 ft 233 kts 223°
2026-04-20 03:59 35.22429 -120.71200 1810 ft 270 kts 210°
2026-04-20 03:59 35.20398 -120.71894 1568 ft 322 kts 182°
2026-04-20 04:00 35.18283 -120.71411 1437 ft 305 kts 156°
2026-04-20 04:00 35.16667 -120.69839 1222 ft 298 kts 127°
2026-04-20 04:00 35.15858 -120.67562 1404 ft 283 kts 105°
2026-04-20 04:00 35.15434 -120.65291 2149 ft 264 kts 102°
2026-04-20 04:01 35.15093 -120.63148 3492 ft 256 kts 103°
2026-04-20 04:01 35.14753 -120.60974 4319 ft 262 kts 104°
2026-04-20 04:01 35.14391 -120.58791 5252 ft 263 kts 105°
2026-04-20 04:01 35.13969 -120.56595 6063 ft 267 kts 111°
2026-04-20 04:02 35.13219 -120.54514 6831 ft 269 kts 121°
2026-04-20 04:02 35.12273 -120.52528 7569 ft 271 kts 126°
2026-04-20 04:02 35.11203 -120.50626 8336 ft 273 kts 129°
2026-04-20 04:02 35.10054 -120.48801 9053 ft 276 kts 131°
2026-04-20 04:03 35.08837 -120.46980 9779 ft 278 kts 133°
2026-04-20 04:03 35.07583 -120.45148 10208 ft 288 kts 134°
2026-04-20 04:03 35.06247 -120.43234 10472 ft 303 kts 135°
2026-04-20 04:03 35.04786 -120.41365 11029 ft 305 kts 138°
2026-04-20 04:04 35.03274 -120.39519 11622 ft 309 kts 138°
2026-04-20 04:04 35.01737 -120.37665 12252 ft 312 kts 139°
2026-04-20 04:04 35.00179 -120.35801 12906 ft 315 kts 139°
2026-04-20 04:04 34.98611 -120.33918 13571 ft 318 kts 139°
2026-04-20 04:05 34.97029 -120.32015 14182 ft 322 kts 139°
2026-04-20 04:05 34.95420 -120.30082 14764 ft 326 kts 139°
2026-04-20 04:05 34.93794 -120.28130 15381 ft 331 kts 139°
2026-04-20 04:05 34.92144 -120.26150 15971 ft 335 kts 139°
2026-04-20 04:06 34.90466 -120.24141 16546 ft 340 kts 139°
2026-04-20 04:06 34.88786 -120.22129 16855 ft 331 kts 139°
2026-04-20 04:06 34.87169 -120.20189 16914 ft 330 kts 139°
2026-04-20 04:06 34.85485 -120.18180 16992 ft 345 kts 139°
2026-04-20 04:07 34.83769 -120.16121 17005 ft 347 kts 139°
2026-04-20 04:07 34.82050 -120.14063 16989 ft 346 kts 139°
2026-04-20 04:07 34.80337 -120.12015 16989 ft 345 kts 139°
2026-04-20 04:07 34.78622 -120.09969 17009 ft 345 kts 139°
2026-04-20 04:08 34.76912 -120.07927 17006 ft 344 kts 139°
2026-04-20 04:08 34.75204 -120.05890 17003 ft 344 kts 139°
2026-04-20 04:08 34.73516 -120.03880 16994 ft 344 kts 139°
2026-04-20 04:08 34.71808 -120.01846 16996 ft 344 kts 139°
2026-04-20 04:09 34.70091 -119.99811 16979 ft 346 kts 139°
2026-04-20 04:09 34.68370 -119.97759 16985 ft 346 kts 139°
2026-04-20 04:09 34.66651 -119.95707 16978 ft 346 kts 139°
2026-04-20 04:09 34.64933 -119.93657 16974 ft 346 kts 139°
2026-04-20 04:10 34.63212 -119.91612 16978 ft 346 kts 139°
2026-04-20 04:10 34.61488 -119.89570 16977 ft 346 kts 139°
2026-04-20 04:10 34.59766 -119.87529 16974 ft 346 kts 139°
2026-04-20 04:10 34.58038 -119.85483 16977 ft 346 kts 139°
2026-04-20 04:11 34.56314 -119.83441 16984 ft 346 kts 139°
2026-04-20 04:11 34.54593 -119.81407 16967 ft 344 kts 139°
2026-04-20 04:11 34.52951 -119.79279 16965 ft 348 kts 132°
2026-04-20 04:11 34.51476 -119.76945 16972 ft 348 kts 129°
2026-04-20 04:12 34.50056 -119.74560 16973 ft 348 kts 128°
2026-04-20 04:12 34.48732 -119.72102 16973 ft 350 kts 123°
2026-04-20 04:12 34.47536 -119.69535 16974 ft 350 kts 122°
2026-04-20 04:12 34.46353 -119.66952 16977 ft 350 kts 122°
2026-04-20 04:13 34.45179 -119.64363 16990 ft 350 kts 122°
2026-04-20 04:13 34.44006 -119.61778 16983 ft 350 kts 122°
2026-04-20 04:13 34.42833 -119.59194 16981 ft 350 kts 122°
2026-04-20 04:13 34.41658 -119.56610 16938 ft 351 kts 122°
2026-04-20 04:14 34.40481 -119.54024 16706 ft 349 kts 122°
2026-04-20 04:14 34.39292 -119.51415 16484 ft 357 kts 122°
2026-04-20 04:14 34.38088 -119.48771 16240 ft 359 kts 122°
2026-04-20 04:14 34.36886 -119.46131 15877 ft 356 kts 122°
2026-04-20 04:15 34.35696 -119.43527 15521 ft 352 kts 122°
2026-04-20 04:15 34.34516 -119.40943 15173 ft 349 kts 122°
2026-04-20 04:15 34.33345 -119.38381 14819 ft 347 kts 122°
2026-04-20 04:15 34.32196 -119.35867 14463 ft 342 kts 122°
2026-04-20 04:16 34.31053 -119.33369 14106 ft 334 kts 122°
2026-04-20 04:16 34.29935 -119.30935 13720 ft 327 kts 122°
2026-04-20 04:16 34.28842 -119.28549 13323 ft 321 kts 122°
2026-04-20 04:16 34.27768 -119.26208 12937 ft 316 kts 122°
2026-04-20 04:17 34.26712 -119.23907 12537 ft 311 kts 122°
2026-04-20 04:17 34.25670 -119.21641 12154 ft 304 kts 122°
2026-04-20 04:17 34.24657 -119.19436 11762 ft 297 kts 122°
2026-04-20 04:17 34.23658 -119.17268 11384 ft 294 kts 122°
2026-04-20 04:18 34.22671 -119.15123 11110 ft 289 kts 122°
2026-04-20 04:18 34.21703 -119.13018 11038 ft 287 kts 122°
2026-04-20 04:18 34.20723 -119.10894 11017 ft 291 kts 122°
2026-04-20 04:18 34.19723 -119.08764 11012 ft 292 kts 123°
2026-04-20 04:19 34.18750 -119.06616 11000 ft 292 kts 119°
2026-04-20 04:19 34.17876 -119.04430 10904 ft 293 kts 118°
2026-04-20 04:19 34.16997 -119.02183 10773 ft 292 kts 118°
2026-04-20 04:19 34.16137 -118.99970 10654 ft 291 kts 118°
2026-04-20 04:20 34.15284 -118.97795 10537 ft 290 kts 118°
2026-04-20 04:20 34.14425 -118.95593 10422 ft 290 kts 118°
2026-04-20 04:20 34.13566 -118.93397 10290 ft 289 kts 118°
2026-04-20 04:20 34.12710 -118.91204 10156 ft 288 kts 118°
2026-04-20 04:21 34.11855 -118.89018 10053 ft 287 kts 118°
2026-04-20 04:21 34.10998 -118.86841 9995 ft 287 kts 118°
2026-04-20 04:21 34.10144 -118.84661 9981 ft 287 kts 118°
2026-04-20 04:21 34.09289 -118.82479 9983 ft 288 kts 118°
2026-04-20 04:22 34.08432 -118.80298 9981 ft 288 kts 118°
2026-04-20 04:22 34.07572 -118.78123 9984 ft 288 kts 118°
2026-04-20 04:22 34.06716 -118.75936 9990 ft 288 kts 118°
2026-04-20 04:22 34.05862 -118.73753 9984 ft 288 kts 118°
2026-04-20 04:23 34.05007 -118.71574 9989 ft 285 kts 118°
2026-04-20 04:23 34.04192 -118.69425 9815 ft 280 kts 115°
2026-04-20 04:23 34.03541 -118.67259 9544 ft 276 kts 110°
2026-04-20 04:23 34.03010 -118.65047 9278 ft 273 kts 108°
2026-04-20 04:24 34.02652 -118.62810 9014 ft 272 kts 101°
2026-04-20 04:24 34.02414 -118.60550 8762 ft 272 kts 100°
2026-04-20 04:24 34.02195 -118.58279 8516 ft 272 kts 99°
2026-04-20 04:24 34.01985 -118.56020 8271 ft 271 kts 99°
2026-04-20 04:25 34.01777 -118.53777 8107 ft 267 kts 99°
2026-04-20 04:25 34.01569 -118.51554 8042 ft 268 kts 99°
2026-04-20 04:25 34.01366 -118.49320 8000 ft 268 kts 97°
2026-04-20 04:25 34.01517 -118.47070 7886 ft 271 kts 84°
2026-04-20 04:26 34.01849 -118.44863 7679 ft 263 kts 85°
2026-04-20 04:26 34.01723 -118.42761 7399 ft 244 kts 104°
2026-04-20 04:26 34.01764 -118.40750 7122 ft 240 kts 82°
2026-04-20 04:26 34.01984 -118.38786 6867 ft 233 kts 87°
2026-04-20 04:27 34.02227 -118.36890 6614 ft 232 kts 82°
2026-04-20 04:27 34.02579 -118.34995 6373 ft 230 kts 81°
2026-04-20 04:27 34.02931 -118.33118 6143 ft 228 kts 82°
2026-04-20 04:27 34.03180 -118.31231 6071 ft 228 kts 86°
2026-04-20 04:28 34.03376 -118.29342 6055 ft 227 kts 86°
2026-04-20 04:28 34.03592 -118.27455 6053 ft 228 kts 86°
2026-04-20 04:28 34.03690 -118.25556 6032 ft 226 kts 97°
2026-04-20 04:28 34.03323 -118.23823 5983 ft 205 kts 120°
2026-04-20 04:29 34.02489 -118.22483 5912 ft 201 kts 141°
2026-04-20 04:29 34.01281 -118.21659 5643 ft 200 kts 163°
2026-04-20 04:29 33.99919 -118.21483 5393 ft 194 kts 185°
2026-04-20 04:29 33.98668 -118.21944 5150 ft 189 kts 209°
2026-04-20 04:30 33.97613 -118.22902 4820 ft 192 kts 224°
2026-04-20 04:30 33.96966 -118.24268 4465 ft 190 kts 252°
2026-04-20 04:30 33.96693 -118.25772 4033 ft 181 kts 259°
2026-04-20 04:30 33.96556 -118.27261 3556 ft 177 kts 261°
2026-04-20 04:31 33.96392 -118.28716 3066 ft 174 kts 261°
2026-04-20 04:31 33.96226 -118.30148 2583 ft 171 kts 262°
2026-04-20 04:31 33.96078 -118.31558 2159 ft 165 kts 263°
2026-04-20 04:31 33.95951 -118.32858 1920 ft 152 kts 264°
2026-04-20 04:32 33.95829 -118.34119 1512 ft 151 kts 263°
2026-04-20 04:32 33.95708 -118.35353 1155 ft 147 kts 262°
2026-04-20 04:32 33.95584 -118.36560 835 ft 142 kts 263°
2026-04-20 04:32 33.95460 -118.37737 529 ft 141 kts 263°
2026-04-20 04:33 33.95341 -118.38883 311 ft 136 kts 259°
2026-04-20 04:33 33.95225 -118.39976 144 ft 128 kts 261°
2026-04-20 04:33 33.95124 -118.40960 90 ft 106 kts 263°
2026-04-20 04:33 33.95051 -118.41711 94 ft 75 kts 262°
2026-04-20 04:34 33.94976 -118.42132 95 ft 30 kts 238°
2026-04-20 04:34 33.94904 -118.42234 95 ft 4 kts 221°
2026-04-20 04:34 33.94892 -118.42246 93 ft 11 kts 217°
2026-04-20 04:34 33.94849 -118.42272 94 ft 7 kts 198°
2026-04-20 04:35 33.94784 -118.42282 94 ft 11 kts 179°
2026-04-20 04:35 33.94701 -118.42255 93 ft 10 kts 133°
2026-04-20 04:35 33.94690 -118.42170 93 ft 11 kts 85°
2026-04-20 04:35 33.94702 -118.42068 91 ft 13 kts 81°
2026-04-20 04:36 33.94678 -118.41829 91 ft 17 kts 160°
2026-04-20 04:36 33.94550 -118.41805 90 ft 21 kts 174°
2026-04-20 04:36 33.94385 -118.41782 90 ft 25 kts 174°
2026-04-20 04:37 33.94215 -118.41756 90 ft 25 kts 173°
2026-04-20 04:37 33.94044 -118.41729 93 ft 25 kts 173°
2026-04-20 04:37 33.93880 -118.41706 92 ft 20 kts 173°
2026-04-20 04:37 33.93749 -118.41682 92 ft 13 kts 157°
2026-04-20 04:38 33.93718 -118.41584 93 ft 17 kts 83°
2026-04-20 04:38 33.93732 -118.41436 92 ft 19 kts 83°
2026-04-20 04:38 33.93748 -118.41275 94 ft 20 kts 83°
2026-04-20 04:38 33.93766 -118.41101 91 ft 22 kts 83°
2026-04-20 04:39 33.93785 -118.40911 91 ft 23 kts 83°
2026-04-20 04:39 33.93805 -118.40714 93 ft 24 kts 84°
2026-04-20 04:39 33.93827 -118.40510 93 ft 25 kts 83°
2026-04-20 04:39 33.93848 -118.40302 93 ft 25 kts 82°
2026-04-20 04:40 33.93870 -118.40090 95 ft 26 kts 83°
2026-04-20 04:40 33.93891 -118.39872 93 ft 24 kts 80°
2026-04-20 04:40 33.93915 -118.39812 94 ft 2 kts 33°
2026-04-20 04:40 33.93957 -118.39809 94 ft 8 kts 349°
2026-04-20 04:41 33.94015 -118.39796 93 ft 10 kts 52°
2026-04-20 04:41 33.94027 -118.39776 93 ft 3 kts 58°
2026-04-20 04:41 33.94032 -118.39766 92 ft 0 kts 59°
2026-04-20 04:41 33.94034 -118.39761 92 ft 0 kts 59°